Ponca City, OK

3:15 PM CDT on July 23, 2017 (GMT -0500)
Ponca City Municipal

Weather History for KPNC - September, 2013

Change the Weather History Date:

Tuesday, September 10, 2013

  Actual Average Record
Temperature  
Mean Temperature 84 °F -  
Max Temperature 93 °F 86 °F 101 °F (2000)
Min Temperature 75 °F 62 °F 45 °F (1962)
Cooling Degree Days 19    
Growing Degree Days 34 (Base 50)    
Moisture  
Dew Point 59 °F    
Average Humidity 45    
Maximum Humidity 62    
Minimum Humidity 27    
Precipitation  
Precipitation 0.00 in - - ()
Sea Level Pressure  
Sea Level Pressure 29.99 in    
Wind  
Wind Speed 7 mph (South)    
Max Wind Speed 16 mph    
Max Gust Speed 24 mph    
Visibility 10 miles    
Events      
Averages and records for this station are not official NWS values.
T = Trace of Precipitation, MM = Missing Value Source: NWS Daily Summary

Daily Weather History Graph

Daily Weather History Graph

Search for Another Location

Airport or City:

Trip Planner

Search our weather history database for the weather conditions in past years. The results will help you decide how hot, cold, wet, or windy it might be!

Date:

Astronomy

Sep. 10, 2013 Rise Set
Actual Time 7:06 AM CDT 7:42 PM CDT
Civil Twilight 6:40 AM CDT 8:09 PM CDT
Nautical Twilight 6:10 AM CDT 8:39 PM CDT
Astronomical Twilight 5:38 AM CDT 9:11 PM CDT
Moon 12:24 PM CDT (9/10) 10:56 PM CDT (9/10)
Length of Visible Light 13h 28m
Length of Day
12h 36m
Waxing Crescent, 28% of the Moon is Illuminated
Sep 10
Waxing Crescent
Sep 12
First Quarter
Sep 19
Full
Sep 26
Last Quarter
Oct 4
New

Hourly Weather History & Observations

Time (CDT) Temp. Heat Index Dew Point Humidity Pressure Visibility Wind Dir Wind Speed Gust Speed Precip Events Conditions
12:53 AM 82.0 °F 82.1 °F 59.0 °F 45% 29.92 in 10.0 mi South 8.1 mph - N/A   Clear
1:53 AM 78.1 °F - 60.1 °F 54% 29.92 in 10.0 mi South 6.9 mph - N/A   Clear
2:53 AM 77.0 °F - 60.1 °F 56% 29.94 in 10.0 mi South 3.5 mph - N/A   Clear
3:53 AM 75.9 °F - 60.1 °F 58% 29.94 in 10.0 mi Variable 3.5 mph - N/A   Clear
4:53 AM 75.9 °F - 60.1 °F 58% 29.95 in 10.0 mi Variable 5.8 mph - N/A   Clear
5:53 AM 75.9 °F - 61.0 °F 60% 29.98 in 10.0 mi South 4.6 mph - N/A   Clear
6:53 AM 75.0 °F - 61.0 °F 62% 29.99 in 10.0 mi Variable 3.5 mph - N/A   Clear
7:53 AM 77.0 °F - 62.1 °F 60% 30.01 in 10.0 mi South 5.8 mph - N/A   Partly Cloudy
9:53 AM 82.9 °F 84.4 °F 64.0 °F 53% 30.04 in 10.0 mi South 8.1 mph - N/A   Clear
10:53 AM 88.0 °F 88.4 °F 62.1 °F 42% 30.04 in 10.0 mi SW 13.8 mph 21.9 mph N/A   Clear
11:53 AM 91.0 °F 90.9 °F 61.0 °F 36% 30.04 in 10.0 mi SW 11.5 mph 23.0 mph N/A   Clear
2:53 PM 93.0 °F 92.0 °F 57.9 °F 31% 30.00 in 10.0 mi SSE 16.1 mph 24.2 mph N/A   Clear
3:53 PM 91.9 °F 89.5 °F 53.1 °F 27% 30.00 in 10.0 mi South 8.1 mph 21.9 mph N/A   Clear
4:53 PM 93.0 °F 91.1 °F 55.0 °F 28% 29.98 in 10.0 mi SSW 10.4 mph 18.4 mph N/A   Clear
5:53 PM 91.9 °F 90.6 °F 57.0 °F 31% 29.97 in 10.0 mi South 8.1 mph - N/A   Clear
6:53 PM 90.0 °F - 52.0 °F 27% 29.97 in 10.0 mi South 8.1 mph - N/A   Clear
7:53 PM 86.0 °F 84.5 °F 55.0 °F 35% 29.98 in 10.0 mi South 5.8 mph - N/A   Clear
8:53 PM 82.9 °F 82.6 °F 57.9 °F 42% 30.01 in 10.0 mi SSE 5.8 mph - N/A   Clear
9:53 PM 82.9 °F 82.6 °F 57.9 °F 42% 30.02 in 10.0 mi SSE 6.9 mph - N/A   Clear
10:53 PM 82.0 °F 82.0 °F 57.9 °F 44% 30.04 in 10.0 mi SSE 10.4 mph - N/A   Clear
11:53 PM 80.1 °F 80.7 °F 59.0 °F 48% 30.04 in 10.0 mi Variable 3.5 mph - N/A   Clear